Location: Riverside Cemetery
(38.3047°N, 99.7773°W)
Time: 07:32:36
(UTC+00:00)

Cosmos 1733 Rocket - Pass Details

Date: 19 September 2020
Orbit: 602 x 629 km, 82.5° (Epoch: 21 October)

Event Time Altitude Azimuth Distance (km) Brightness Sun altitude
Rises 11:49:03 0° 347° (NNW) 2,881 6.4 -7.8°
Reaches altitude 10° 11:51:19 10° 344° (NNW) 1,968 5.6 -7.4°
Maximum altitude 11:55:33 56° 267° (W) 727 3.1 -6.5°
Drops below altitude 10° 11:59:46 10° 189° (S) 1,942 5.5 -5.7°
Sets 12:01:59 0° 185° (S) 2,839 6.3 -5.3°
